Location: Clarion
(42.7316°N, 93.7330°W)
Time: 09:40:37
(UTC+00:00)

Cosmos 1975 - Pass Details

Date: 22 April 2026
Orbit: 473 x 486 km, 82.5° (Epoch: 17 May)

Event Time Altitude Azimuth Distance (km) Brightness Sun altitude
Rises 08:24:04 0° 355° (N) 2,550 6.9 -27.4°
Reaches altitude 10° 08:26:11 10° 358° (N) 1,668 5.9 -27.2°
Enters shadow 08:28:13 31° 9° (N) 879 4.3 -27.0°
